Location: Unspecified
(0.0000°N, 0.0000°E)
Time: 04:59:19
(UTC+01:00)

AO-40 - Visible Passes

Search period start: 26 November 2014 00:00
Search period end: 06 December 2014 00:00
Orbit: 1088 x 58733 km, 8.7° (Epoch: 23 November)

Date Brightness Start Highest point End Pass type
(mag) Time Alt. Az. Time Alt. Az. Time Alt. Az.
26 Nov ? 17:25:18 10° WSW 19:19:47 81° SSW 02:33:55 10° W visible
27 Nov ? 12:14:14 10° W 21:31:45 89° S 13:06:21 10° E daylight
28 Nov ? 16:29:11 10° E 23:38:05 85° NNE 02:04:24 10° ENE visible
30 Nov ? 16:57:18 10° WSW 19:13:22 83° SSW 02:24:48 10° W visible
01 Dec ? 11:46:41 10° W 21:22:33 89° S 12:25:31 10° E daylight
02 Dec ? 16:20:02 10° E 23:36:41 83° NNE 01:36:25 10° ENE visible
03 Dec ? 23:13:17 10° W 23:19:05 10° W 23:25:06 10° W visible
04 Dec ? 16:29:21 10° WSW 19:13:47 84° S 02:15:38 10° W visible
05 Dec ? 11:19:08 10° W 21:13:21 90° S 11:50:25 10° E visible
